FW2710 Weather Reports


Display with metric or nautical units.
time (UTC)temp
F
wind
direction
speed
MPH
gust
MPH
rain 1hr
in
rain 24hr
in
rain mn
in
humidity
%
barometer
mb
20260504050522 53 0 0.0 0.0 0.00 0.00 0.00 73 1008.4
20260504045525 53 0 0.0 0.0 0.00 0.00 0.00 72 1008.4
20260504045025 54 0 0.0 0.0 0.00 0.00 0.00 71 1008.5
20260504044538 54 0 0.0 0.0 0.00 0.00 0.00 71 1008.4
20260504044025 54 0 0.0 1.0 0.00 0.00 0.00 71 1008.4
20260504043527 54 0 0.0 1.0 0.00 0.00 0.00 71 1008.5
20260504043048 54 0 0.0 0.0 0.00 0.00 0.00 71 1008.5
20260504042526 54 0 0.0 0.0 0.00 0.00 0.00 70 1008.5
20260504042025 54 0 0.0 0.0 0.00 0.00 0.00 70 1008.5
20260504041544 54 0 0.0 0.0 0.00 0.00 0.00 69 1008.5
20260504041025 55 0 0.0 0.0 0.00 0.00 0.00 69 1008.6
20260504040527 55 0 0.0 0.0 0.00 0.00 0.00 69 1008.5
20260504040046 55 0 0.0 0.0 0.00 0.00 0.00 69 1008.5
20260504035526 55 0 0.0 0.0 0.00 0.00 0.00 68 1008.7
20260504035026 55 0 0.0 0.0 0.00 0.00 0.00 68 1008.7
20260504034547 56 0 0.0 0.0 0.00 0.00 0.00 68 1008.8
20260504034026 56 0 0.0 0.0 0.00 0.00 0.00 67 1008.8
20260504033525 56 0 0.0 0.0 0.00 0.00 0.00 67 1008.8
20260504033046 56 0 0.0 0.0 0.00 0.00 0.00 67 1008.8
20260504032527 56 0 0.0 0.0 0.00 0.00 0.00 67 1008.8
20260504032025 56 0 0.0 0.0 0.00 0.00 0.00 67 1008.8
20260504031544 56 0 0.0 0.0 0.00 0.00 0.00 67 1008.9
20260504031024 56 0 0.0 0.0 0.00 0.00 0.00 68 1008.9
20260504030525 56 0 0.0 0.0 0.00 0.00 0.00 68 1008.9
20260504030040 56 0 0.0 0.0 0.00 0.00 0.00 68 1008.9
20260504025526 56 0 0.0 0.0 0.00 0.00 0.00 68 1009.0
20260504025025 56 0 0.0 0.0 0.00 0.00 0.00 68 1009.0
20260504024547 56 0 0.0 0.0 0.00 0.00 0.00 67 1008.9
20260504024025 56 0 0.0 0.0 0.00 0.00 0.00 67 1008.9
20260504023522 56 0 0.0 0.0 0.00 0.00 0.00 67 1009.0
20260504023037 56 0 0.0 0.0 0.00 0.00 0.00 67 1008.8
20260504022525 56 0 0.0 0.0 0.00 0.00 0.00 67 1008.9
20260504022025 56 0 0.0 0.0 0.00 0.00 0.00 67 1008.9
20260504021542 56 0 0.0 0.0 0.00 0.00 0.00 66 1008.9
20260504021025 57 0 0.0 0.0 0.00 0.00 0.00 66 1008.9
20260504020525 57 0 0.0 0.0 0.00 0.00 0.00 65 1008.8
20260504020043 57 0 0.0 0.0 0.00 0.00 0.00 65 1008.9
20260504015526 57 0 0.0 0.0 0.00 0.00 0.00 64 1008.7
20260504015026 57 0 0.0 0.0 0.00 0.00 0.00 64 1008.8
20260504014542 58 0 0.0 0.0 0.00 0.00 0.00 63 1008.8
20260504014025 58 0 0.0 0.0 0.00 0.00 0.00 62 1008.7
20260504013525 59 0 0.0 0.0 0.00 0.00 0.00 61 1008.8
20260504013054 59 0 0.0 0.0 0.00 0.00 0.00 60 1008.6
20260504012525 60 0 0.0 0.0 0.00 0.00 0.00 60 1008.6
20260504012025 60 0 0.0 0.0 0.00 0.00 0.00 59 1008.5
20260504011546 61 0 0.0 0.0 0.00 0.00 0.00 58 1008.6
20260504011025 61 0 0.0 0.0 0.00 0.00 0.00 57 1008.5
20260504010525 62 0 0.0 0.0 0.00 0.00 0.00 56 1008.4
20260504010045 62 0 0.0 0.0 0.00 0.00 0.00 55 1008.5
20260504005526 63 0 0.0 0.0 0.00 0.00 0.00 54 1008.4
20260504005025 63 0 0.0 0.0 0.00 0.00 0.00 53 1008.3
20260504004541 64 0 0.0 0.0 0.00 0.00 0.00 53 1008.3
20260504004026 64 0 0.0 0.0 0.00 0.00 0.00 52 1008.3
20260504003526 65 0 0.0 3.0 0.00 0.00 0.00 51 1008.3
20260504003041 65 0 0.0 6.0 0.00 0.00 0.00 51 1008.4
20260504002525 66 0 0.0 6.0 0.00 0.00 0.00 50 1008.4
20260504002025 66 0 0.0 6.0 0.00 0.00 0.00 49 1008.4
20260504001543 66 0 0.0 7.0 0.00 0.00 0.00 49 1008.4
20260504001026 66 287 0.0 7.0 0.00 0.00 0.00 48 1008.3
20260504000528 67 0 0.0 2.0 0.00 0.00 0.00 48 1008.5
20260504000046 67 0 0.0 6.0 0.00 0.00 0.00 48 1008.4
20260503235525 67 0 0.0 6.0 0.00 0.00 0.00 47 1008.4
20260503235025 67 0 0.0 6.0 0.00 0.00 0.00 46 1008.3
20260503234543 68 0 0.0 7.0 0.00 0.00 0.00 46 1008.4
20260503234027 68 0 0.0 10.0 0.00 0.00 0.00 45 1008.3
20260503233525 68 0 0.0 10.0 0.00 0.00 0.00 45 1008.4
20260503233039 68 287 1.0 8.0 0.00 0.00 0.00 44 1008.3
20260503232525 68 0 0.0 7.0 0.00 0.00 0.00 44 1008.4
20260503232026 68 0 0.0 10.0 0.00 0.00 0.00 44 1008.3
20260503231541 68 0 2.0 10.0 0.00 0.00 0.00 43 1008.4
20260503231028 68 287 2.0 9.0 0.00 0.00 0.00 43 1008.5
20260503230527 68 0 1.0 9.0 0.00 0.00 0.00 42 1008.5
20260503230049 68 0 1.0 9.0 0.00 0.00 0.00 42 1008.6
20260503225526 69 287 1.0 8.0 0.00 0.00 0.00 42 1008.6
20260503225026 69 287 1.0 9.0 0.00 0.00 0.00 42 1008.6
20260503224550 69 287 1.0 9.0 0.00 0.00 0.00 41 1008.6
20260503224025 68 0 0.0 9.0 0.00 0.00 0.00 42 1008.7
20260503223526 68 287 0.0 10.0 0.00 0.00 0.00 42 1008.8
20260503223042 68 287 2.0 10.0 0.00 0.00 0.00 41 1008.8
20260503222525 68 0 3.0 12.0 0.00 0.00 0.00 41 1008.8
20260503222025 68 287 3.0 12.0 0.00 0.00 0.00 41 1008.9
20260503221551 68 287 3.0 10.0 0.00 0.00 0.00 41 1008.8
20260503221026 67 287 3.0 10.0 0.00 0.00 0.00 43 1008.9
20260503220529 66 0 3.0 13.0 0.00 0.00 0.00 43 1008.8
20260503220037 66 287 4.0 13.0 0.00 0.00 0.00 42 1008.9
20260503215525 66 287 3.0 13.0 0.00 0.00 0.00 42 1008.8
20260503215026 67 287 4.0 13.0 0.00 0.00 0.00 42 1009.0
20260503214545 67 287 4.0 12.0 0.00 0.00 0.00 42 1009.0
20260503214028 66 287 6.0 12.0 0.00 0.00 0.00 43 1009.0
20260503213526 66 287 5.0 13.0 0.00 0.00 0.00 44 1008.9
20260503213045 66 287 5.0 13.0 0.00 0.00 0.00 45 1009.0
20260503212526 65 287 5.0 14.0 0.00 0.00 0.00 45 1009.0
20260503212025 65 287 8.0 16.0 0.00 0.00 0.00 44 1009.0
20260503211541 66 287 6.0 16.0 0.00 0.00 0.00 44 1009.0
20260503211025 66 287 8.0 16.0 0.00 0.00 0.00 43 1009.2
20260503210525 67 287 8.0 15.0 0.00 0.00 0.00 42 1009.2
20260503210040 67 287 7.0 15.0 0.00 0.00 0.00 42 1009.1
20260503205525 67 287 6.0 15.0 0.00 0.00 0.00 43 1009.1
20260503205025 67 287 8.0 15.0 0.00 0.00 0.00 42 1009.1
20260503204538 66 287 6.0 14.0 0.00 0.00 0.00 45 1009.3
20260503204023 65 287 6.0 14.0 0.00 0.00 0.00 46 1009.4
20260503203528 65 287 8.0 16.0 0.00 0.00 0.00 44 1009.5
20260503203044 65 287 7.0 16.0 0.00 0.00 0.00 44 1009.5
20260503202528 65 287 7.0 14.0 0.00 0.00 0.00 42 1009.5
20260503202024 66 287 7.0 15.0 0.00 0.00 0.00 43 1009.7
20260503201541 67 287 8.0 15.0 0.00 0.00 0.00 41 1009.7
20260503201023 67 287 9.0 16.0 0.00 0.00 0.00 40 1009.6
20260503200523 68 287 9.0 16.0 0.00 0.00 0.00 42 1009.9
20260503200040 67 0 7.0 15.0 0.00 0.00 0.00 43 1009.8
20260503195525 67 287 8.0 16.0 0.00 0.00 0.00 41 1009.7
20260503195025 67 287 9.0 16.0 0.00 0.00 0.00 41 1009.7
20260503194541 67 287 9.0 18.0 0.00 0.00 0.00 42 1010.0
20260503194025 66 287 8.0 18.0 0.00 0.00 0.00 42 1010.0
20260503193525 67 287 11.0 18.0 0.00 0.00 0.00 40 1009.9
20260503193049 67 287 10.0 19.0 0.00 0.00 0.00 41 1010.0
20260503192525 67 287 10.0 19.0 0.00 0.00 0.00 42 1010.2
20260503192030 67 287 9.0 18.0 0.00 0.00 0.00 41 1010.5
20260503191604 66 287 10.0 18.0 0.00 0.00 0.00 40 1010.5
20260503191029 67 287 11.0 18.0 0.00 0.00 0.00 41 1010.4
20260503190527 66 287 7.0 18.0 0.00 0.00 0.00 43 1010.4
20260503190041 66 287 11.0 17.0 0.00 0.00 0.00 42 1010.5
20260503185530 66 287 8.0 16.0 0.00 0.00 0.00 43 1010.5
20260503185025 66 287 9.0 16.0 0.00 0.00 0.00 45 1010.6
20260503184541 65 287 9.0 19.0 0.00 0.00 0.00 44 1010.7
20260503184026 65 287 10.0 19.0 0.00 0.00 0.00 43 1011.0
20260503183530 65 287 10.0 19.0 0.00 0.00 0.00 45 1011.1
20260503183042 64 287 8.0 15.0 0.00 0.00 0.00 45 1011.3
20260503182525 64 287 8.0 14.0 0.00 0.00 0.00 47 1011.5
20260503182025 62 287 6.0 13.0 0.00 0.00 0.00 48 1011.6
20260503181549 62 287 7.0 14.0 0.00 0.00 0.00 49 1011.8
20260503181025 61 287 6.0 16.0 0.00 0.00 0.00 48 1012.0
20260503180525 61 287 8.0 16.0 0.00 0.00 0.00 46 1012.3
20260503180043 61 287 10.0 16.0 0.00 0.00 0.00 44 1012.5
20260503175526 62 287 9.0 16.0 0.00 0.00 0.00 43 1012.6
20260503175025 63 287 9.0 16.0 0.00 0.00 0.00 44 1012.9
20260503174547 63 287 9.0 16.0 0.00 0.00 0.00 45 1012.8
20260503174025 62 287 7.0 16.0 0.00 0.00 0.00 46 1013.1
20260503173525 62 287 7.0 13.0 0.00 0.00 0.00 46 1013.2
20260503173046 61 287 5.0 13.0 0.00 0.00 0.00 46 1013.3
20260503172526 61 287 5.0 13.0 0.00 0.00 0.00 46 1013.8
20260503172026 61 287 7.0 13.0 0.00 0.00 0.00 46 1013.7
20260503171541 60 287 7.0 13.0 0.00 0.00 0.00 46 1013.8
20260503171026 60 287 7.0 12.0 0.00 0.00 0.00 48 1013.8
20260503170527 59 287 6.0 12.0 0.00 0.00 0.00 48 1013.6
20260503150521 55 287 5.0 11.0 0.00 0.00 0.00 58 1015.8
20260503131026 50 287 3.0 9.0 0.00 0.00 0.00 65 1016.9
20260503130522 50 287 2.0 9.0 0.00 0.00 0.00 66 1016.8
20260503110525 45 0 2.0 7.0 0.00 0.00 0.00 69 1016.6
20260503081541 43 0 0.0 1.0 0.00 0.00 0.00 67 1017.1
20260503081026 43 0 0.0 0.0 0.00 0.00 0.00 68 1017.3
20260503080526 43 0 0.0 0.0 0.00 0.00 0.00 69 1017.3
20260503072528 40 0 0.0 0.0 0.00 0.00 0.00 73 1017.3
20260503072028 40 0 0.0 0.0 0.00 0.00 0.00 73 1017.3
20260503071538 40 0 0.0 0.0 0.00 0.00 0.00 73 1017.3
20260503071026 40 0 0.0 0.0 0.00 0.00 0.00 73 1017.4
20260503070526 40 0 0.0 0.0 0.00 0.00 0.00 74 1017.5
20260503055026 40 0 0.0 0.0 0.00 0.00 0.00 72 1018.1
20260503054556 40 0 0.0 0.0 0.00 0.00 0.00 71 1018.1
20260503054026 40 0 0.0 0.0 0.00 0.00 0.00 71 1018.1
20260503053526 40 0 0.0 0.0 0.00 0.00 0.00 71 1018.3
20260503053040 40 0 0.0 0.0 0.00 0.00 0.00 71 1018.2
20260503052527 40 0 0.0 0.0 0.00 0.00 0.00 72 1018.3
20260503052026 40 0 0.0 0.0 0.00 0.00 0.00 72 1018.3